Location: Dallas
(32.7833°N, 96.8000°W)
Time: 20:39:54
(UTC-05:00)

N. Korean satellite - Pass Details

Date: 18 January 2018
Orbit: 455 x 508 km, 97.2° (Epoch: 23 October)

Event Time Altitude Azimuth Distance (km) Brightness Sun altitude
Rises 18:45:43 0° 180° (S) 2,586 10.5 -12.5°
Reaches altitude 10° 18:47:52 10° 186° (S) 1,697 9.6 -12.9°
Maximum altitude 18:51:23 45° 261° (W) 675 7.8 -13.6°
Drops below altitude 10° 18:54:51 10° 335° (NNW) 1,673 9.4 -14.3°
Sets 18:56:57 0° 342° (NNW) 2,545 10.3 -14.7°
